{"data":{"norad_id":68824,"intl_designator":"2026-089Y","name":"STARLINK-37443","alt_names":[],"object_type":"PAYLOAD","status":"ACTIVE","operator":null,"country":"US","launch_date":"2026-04-23","launch_site_code":"AFWTR","launch_vehicle":null,"mission":null,"orbit_class":"UNKNOWN","rcs_meters":null,"size_class":null,"mass_kg":null,"dimensions":null,"purposes":["comms"],"wikipedia_slug":null,"has_3d_model":false,"image_url":null,"decayed_at":null,"tle_current":{"epoch":"2026-09-19T00:06:07.696800Z","epoch_age_seconds":169346,"freshness":"FRESH","line1":"1 68824U 26089Y   26262.00425575  .00018228  00000+0  56550-3 0  9993","line2":"2 68824  97.2855 107.8495 0001242 118.4880 241.6488 15.33449416 23030","mean_motion":15.33449416,"eccentricity":0.0001242,"inclination_deg":97.2855,"raan_deg":107.8495,"arg_perigee_deg":118.488,"mean_anomaly_deg":241.6488,"bstar":0.0005655,"rev_number":2303,"period_min":93.905934227439,"perigee_km":464.68005215476,"apogee_km":466.3800190464,"semimajor_km":6843.6670356006,"source":"CELESTRAK","updated_at":"2026-09-20T09:00:44.012347Z"}}}